{"data":{"norad_id":39741,"intl_designator":"2014-026A","name":"GPS BIIF-6  (PRN 06)","alt_names":[],"object_type":"PAYLOAD","status":"ACTIVE","operator":null,"country":"US","launch_date":"2014-05-17","launch_site_code":"AFETR","launch_vehicle":null,"mission":null,"orbit_class":"UNKNOWN","rcs_meters":20.5188,"size_class":null,"mass_kg":null,"dimensions":null,"purposes":["earth_obs","nav"],"wikipedia_slug":null,"has_3d_model":false,"image_url":null,"decayed_at":null,"tle_current":{"epoch":"2026-09-20T04:39:31.339008Z","epoch_age_seconds":40685,"freshness":"FRESH","line1":"1 39741U 14026A   26263.19411272 -.00000077  00000+0  00000+0 0  9996","line2":"2 39741  56.4448 327.8153 0039523 324.0995  35.6978  2.00554320 90446","mean_motion":2.0055432,"eccentricity":0.0039523,"inclination_deg":56.4448,"raan_deg":327.8153,"arg_perigee_deg":324.0995,"mean_anomaly_deg":35.6978,"bstar":0,"rev_number":9044,"period_min":718.00996358493,"perigee_km":20078.052791337,"apogee_km":20288.008195907,"semimajor_km":26561.167493622,"source":"CELESTRAK","updated_at":"2026-09-20T09:00:46.117653Z"}}}